Погода в Алмалыке

Узбекистан     40°50′45″N   69°36′25″E
темп.,
°C
ветер,
м/с
пор.,
м/с
влажн.,
%
обл.,
%
осадки,
мм/ч
давл.,
гПа
погр.,
м
27 февраля, сб
сб2723:00−6ююв1160100 0.0 103027
02:00−6зсз0164100 0.0 102831
05:00−6ссв0163100 0.0 102833
08:00−4вюв1160100 0.0 102833
11:000ю2352100 0.1 1029308
14:00+1в2276100 0.1 1028297
17:00+1всв237487 0.1 102972
20:00−1вюв335429 0.0 103228
28 февраля, вс
вс2823:00−1вюв335315 0.0 103135
02:00−2юв23530 0.0 102930
05:00−2юв11520 0.0 102822
08:000юв12520 0.0 102625
11:00+4зюз01550 0.0 1023166
14:00+7ссз11500 0.0 1021240
17:00+4ссв12700 0.0 102033
20:00+1юв12580 0.0 102222
1 марта, пн
пн123:00+1ю115633 0.0 102222
02:00+1ююз1254100 0.0 102122
05:00+1ююв1246100 0.0 102122
08:00+4ююв1241100 0.0 102122
11:00+10юз223781 0.0 1020131
14:00+13сз11360 0.0 1019237
17:00+10ююв11570 0.0 101922
20:00+7юв33380 0.0 102123
2 марта, вт
вт223:00+6юв23380 0.0 102225
02:00+6юв232767 0.0 102224
05:00+6юв232983 0.0 102123
08:00+6юз0142100 0.0 102222
11:00+12зсз2234100 0.0 1021201
14:00+14с2231100 0.0 1020567
17:00+11с2442100 0.0 1020209
20:00+9всв2347100 0.0 102237
3 марта, ср
ср323:00+7в1155100 0.0 102222
02:00+7в0159100 0.0 102122
05:00+6ссв3580100 0.1 1021144
08:00+6в2288100 1.8 1021112
11:00+6всв3386100 4.4 1020199
14:00+8с1173100 0.1 1019514
17:00+6с4593100 1.3 1019352
20:00+6в4587100 0.6 1020134